Location: Houston
(29.7631°N, 95.3631°W)
Time: 13:18:19
(UTC-06:00)

DX 1 - Visible Passes

Search period start: 13 November 2019 00:00
Search period end: 23 November 2019 00:00
Orbit: 618 x 632 km, 98.4° (Epoch: 13 November)

Date Brightness Start Highest point End Pass type
(mag) Time Alt. Az. Time Alt. Az. Time Alt. Az.
14 Nov ? 04:28:16 10° S 04:28:27 11° S 04:28:27 11° S visible
14 Nov ? 17:59:10 10° NNW 18:02:14 19° WNW 18:05:19 10° WSW visible
15 Nov ? 04:47:16 10° S 04:47:29 11° S 04:47:29 11° S visible
15 Nov ? 18:19:22 10° NW 18:20:53 12° WNW 18:22:25 10° W visible
19 Nov ? 04:26:17 10° SSE 04:26:21 10° SSE 04:26:21 10° SSE visible
19 Nov ? 17:57:00 10° NNW 18:00:16 21° WNW 18:03:31 10° WSW visible
20 Nov ? 04:45:13 10° S 04:45:23 11° S 04:45:23 11° S visible
20 Nov ? 18:16:58 10° NW 18:18:55 13° WNW 18:20:53 10° W visible
